Weather History for Jaffrey, NH

Change the Weather History Date:

Sunday, April 29, 2012

  Actual Average Record
Temperature  
Mean Temperature 44 °F -  
Max Temperature 55 °F 59 °F 75 °F (2004)
Min Temperature 33 °F 35 °F 26 °F (2001)
Degree Days  
Heating Degree Days 21    
Moisture  
Dew Point 13 °F    
Average Humidity 31    
Maximum Humidity 59    
Minimum Humidity 13    
Precipitation  
Precipitation 0.00 in - - ()
Sea Level Pressure  
Sea Level Pressure 30.11 in    
Wind  
Wind Speed 5 mph (NW)    
Max Wind Speed 18 mph    
Max Gust Speed 30 mph    
Visibility 10 miles    
Events      
Averages and records for this station are not official NWS values.
T = Trace of Precipitation, MM = Missing Value Source: NWS Daily Summary

Daily Weather History Graph

Daily Weather History Graph

Search for Another Location

Airport:

Trip Planner

Search our weather history database for the weather conditions in past years. The results will help you decide how hot, cold, wet, or windy it might be!

Date:

Astronomy

Apr. 29, 2012 Rise Set
Actual Time 5:44 AM EDT 7:46 PM EDT
Civil Twilight 5:13 AM EDT 8:17 PM EDT
Nautical Twilight 4:36 AM EDT 8:55 PM EDT
Astronomical Twilight 3:54 AM EDT 9:37 PM EDT
Moon 12:26 PM EDT (4/29) 1:43 AM EDT (4/29)
Length of Visible Light 15h 04m
Length of Day
14h 02m
First Quarter, 53% of the Moon is Illuminated
Apr 29
First Quarter
May 5
Full
May 12
Last Quarter
May 20
New
May 28
First Quarter

Hourly Weather History & Observations

Time (EDT) Temp. Windchill Dew Point Humidity Pressure Visibility Wind Dir Wind Speed Gust Speed Precip Events Conditions
12:52 AM 43.0 °F 41.3 °F 18.0 °F 37% 30.12 in 10.0 mi NW 3.5 mph - N/A   Clear
1:52 AM 39.9 °F - 18.0 °F 41% 30.12 in 10.0 mi Calm Calm - N/A   Clear
2:52 AM 37.9 °F 35.5 °F 17.1 °F 43% 30.10 in 10.0 mi East 3.5 mph - N/A   Clear
3:52 AM 36.0 °F - 21.9 °F 57% 30.11 in 10.0 mi Calm Calm - N/A   Clear
4:52 AM 39.9 °F 37.8 °F 14.0 °F 35% 30.10 in 10.0 mi Variable 3.5 mph - N/A   Clear
5:52 AM 33.1 °F - 19.0 °F 56% 30.11 in 10.0 mi Calm Calm - N/A   Clear
6:52 AM 35.1 °F - 21.9 °F 59% 30.12 in 10.0 mi Calm Calm - N/A   Clear
7:52 AM 39.9 °F 35.8 °F 17.1 °F 40% 30.12 in 10.0 mi West 5.8 mph - N/A   Clear
8:52 AM 44.1 °F 40.1 °F 15.1 °F 31% 30.12 in 10.0 mi Variable 6.9 mph - N/A   Clear
9:52 AM 46.0 °F 41.9 °F 12.9 °F 26% 30.11 in 10.0 mi NW 8.1 mph 19.6 mph N/A   Clear
10:52 AM 48.0 °F - 12.9 °F 24% 30.09 in 10.0 mi WNW 11.5 mph 17.3 mph N/A   Clear
11:52 AM 50.0 °F - 9.0 °F 19% 30.07 in 10.0 mi West 13.8 mph 21.9 mph N/A   Clear
12:52 PM 51.1 °F - 9.0 °F 18% 30.06 in 10.0 mi NW 9.2 mph 21.9 mph N/A   Clear
1:52 PM 53.1 °F - 10.0 °F 18% 30.06 in 10.0 mi NW 11.5 mph 26.5 mph N/A   Partly Cloudy
2:52 PM 53.1 °F - 9.0 °F 17% 30.05 in 10.0 mi WNW 8.1 mph 21.9 mph N/A   Clear
3:52 PM 55.0 °F - 8.1 °F 15% 30.05 in 10.0 mi NW 9.2 mph 16.1 mph N/A   Clear
4:52 PM 53.1 °F - 3.0 °F 13% 30.06 in 10.0 mi NNW 18.4 mph 29.9 mph N/A   Clear
5:52 PM 53.1 °F - 8.1 °F 16% 30.09 in 10.0 mi NNW 11.5 mph 20.7 mph N/A   Clear
6:52 PM 50.0 °F - 8.1 °F 18% 30.11 in 10.0 mi Variable 6.9 mph - N/A   Clear
7:52 PM 46.9 °F - 9.0 °F 21% 30.15 in 10.0 mi Variable 6.9 mph - N/A   Clear
8:52 PM 45.0 °F - 10.9 °F 25% 30.19 in 10.0 mi Calm Calm - N/A   Clear
10:52 PM 37.9 °F - 18.0 °F 45% 30.24 in 10.0 mi Calm Calm - N/A   Clear
11:52 PM 37.0 °F 33.3 °F 18.0 °F 46% 30.24 in 10.0 mi NNW 4.6 mph - N/A   Clear